Pocatello, ID

11:55 PM MDT on April 20, 2018 (GMT -0600)
Pocatello Regional

Weather History for KPIH - April, 2013

Change the Weather History Date:

Monday, April 29, 2013

  Actual Average Record
Temperature  
Mean Temperature 57 °F 49 °F  
Max Temperature 66 °F 63 °F 86 °F (1992)
Min Temperature 47 °F 36 °F 21 °F (1994)
Degree Days  
Heating Degree Days 8 16  
Month to date heating degree days 603 566  
Since 1 July heating degree days 6505 6678  
Cooling Degree Days 0 0  
Month to date cooling degree days 0 0  
Year to date cooling degree days 0 0  
Growing Degree Days 7 (Base 50)    
Moisture  
Dew Point 28 °F    
Average Humidity 37    
Maximum Humidity 50    
Minimum Humidity 24    
Precipitation  
Precipitation 0.00 in 0.05 in 0.50 in (1995)
Month to date precipitation 0.54 1.11  
Year to date precipitation 2.34 4.33  
Snow  
Snow 0.00 in - - ()
Month to date snowfall 3.1  
Since 1 July snowfall 37.8  
Snow Depth 0.00 in    
Sea Level Pressure  
Sea Level Pressure 29.79 in    
Wind  
Wind Speed 24 mph (SW)    
Max Wind Speed 40 mph    
Max Gust Speed 48 mph    
Visibility 10 miles    
Events      
T = Trace of Precipitation, MM = Missing Value Source: NWS Daily Summary

Daily Weather History Graph

Daily Weather History Graph

Search for Another Location

Airport or City:

Astronomy

Apr. 29, 2013 Rise Set
Actual Time 6:26 AM MDT 8:29 PM MDT
Civil Twilight 5:55 AM MDT 9:00 PM MDT
Nautical Twilight 5:18 AM MDT 9:38 PM MDT
Astronomical Twilight 4:37 AM MDT 10:19 PM MDT
Moon 12:04 AM MDT (4/29) 9:49 AM MDT (4/29)
Length of Visible Light 15h 04m
Length of Day
14h 02m
Waning Gibbous, 79% of the Moon is Illuminated
Apr 29
Waning Gibbous
May 2
Last Quarter
May 9
New
May 17
First Quarter
May 24
Full

Hourly Weather History & Observations

Time (MDT) Temp. Dew Point Humidity Pressure Visibility Wind Dir Wind Speed Gust Speed Precip Events Conditions
12:53 AM 50.0 °F 27.0 °F 41% 29.89 in 10.0 mi SSW 15.0 mph - N/A   Clear
1:53 AM 51.1 °F 27.0 °F 39% 29.89 in 10.0 mi SW 17.3 mph - N/A   Clear
2:53 AM 48.9 °F 28.0 °F 44% 29.88 in 10.0 mi SSW 15.0 mph - N/A   Clear
3:53 AM 48.0 °F 28.9 °F 48% 29.87 in 10.0 mi SSW 13.8 mph - N/A   Clear
4:53 AM 48.9 °F 28.0 °F 44% 29.86 in 10.0 mi SSW 12.7 mph - N/A   Clear
5:53 AM 48.0 °F 28.0 °F 46% 29.84 in 10.0 mi SSW 16.1 mph - N/A   Clear
6:53 AM 48.9 °F 27.0 °F 43% 29.85 in 10.0 mi SW 21.9 mph 31.1 mph N/A   Clear
7:53 AM 51.1 °F 28.0 °F 41% 29.86 in 10.0 mi SW 19.6 mph 26.5 mph N/A   Partly Cloudy
8:53 AM 54.0 °F 25.0 °F 33% 29.86 in 10.0 mi SW 28.8 mph 34.5 mph N/A   Scattered Clouds
9:53 AM 55.9 °F 25.0 °F 30% 29.86 in 10.0 mi SW 26.5 mph 33.4 mph N/A   Clear
10:53 AM 57.9 °F 21.0 °F 24% 29.83 in 10.0 mi SW 28.8 mph 35.7 mph N/A   Mostly Cloudy
11:53 AM 59.0 °F 28.0 °F 31% 29.83 in 10.0 mi WSW 28.8 mph 40.3 mph N/A   Mostly Cloudy
12:53 PM 60.1 °F 28.9 °F 31% 29.81 in 10.0 mi WSW 29.9 mph 41.4 mph N/A   Mostly Cloudy
1:53 PM 63.0 °F 30.9 °F 30% 29.78 in 10.0 mi WSW 36.8 mph 47.2 mph N/A   Mostly Cloudy
2:53 PM 64.0 °F 32.0 °F 30% 29.74 in 10.0 mi WSW 38.0 mph 48.3 mph N/A   Mostly Cloudy
3:53 PM 64.0 °F 32.0 °F 30% 29.72 in 6.0 mi WSW 39.1 mph 44.9 mph N/A   Widespread Dust
4:53 PM 64.9 °F 32.0 °F 29% 29.68 in 5.0 mi WSW 33.4 mph 40.3 mph N/A   Widespread Dust
5:53 PM 62.1 °F 30.0 °F 30% 29.69 in 10.0 mi West 32.2 mph 38.0 mph N/A   Widespread Dust
6:53 PM 61.0 °F 28.0 °F 29% 29.69 in 10.0 mi West 31.1 mph 38.0 mph N/A   Widespread Dust
7:53 PM 59.0 °F 28.9 °F 32% 29.69 in 10.0 mi West 19.6 mph 28.8 mph N/A   Widespread Dust
8:53 PM 55.9 °F 30.0 °F 37% 29.69 in 10.0 mi WSW 17.3 mph - N/A   Scattered Clouds
9:53 PM 48.9 °F 30.0 °F 48% 29.73 in 10.0 mi WSW 10.4 mph - N/A   Clear
10:53 PM 54.0 °F 28.0 °F 37% 29.71 in 10.0 mi SW 17.3 mph - N/A   Overcast
11:53 PM 50.0 °F 26.1 °F 39% 29.72 in 10.0 mi WSW 16.1 mph - N/A   Mostly Cloudy